Abhaipura, India

3:39 AM IST on June 28, 2017 (GMT +0530)
Abhaipura

Weather History for 42348 - January, 2013

Change the Weather History Date:

Friday, January 4, 2013

  Actual Average Record
Temperature  
Mean Temperature 54 °F -  
Max Temperature 68 °F - - ()
Min Temperature 40 °F - - ()
Degree Days  
Heating Degree Days 11    
Growing Degree Days 4 (Base 50)    
Moisture  
Dew Point 39 °F    
Average Humidity 60    
Maximum Humidity 87    
Minimum Humidity 25    
Precipitation  
Precipitation 0.00 in - - ()
Sea Level Pressure  
Sea Level Pressure 30.03 in    
Wind  
Wind Speed 3 mph ()    
Max Wind Speed 6 mph    
Max Gust Speed -    
Visibility 1.2 miles    
Events Fog    
T = Trace of Precipitation, MM = Missing Value Source: Averaged Metar Reports

Daily Weather History Graph

Daily Weather History Graph

Search for Another Location

Airport or City:

Trip Planner

Search our weather history database for the weather conditions in past years. The results will help you decide how hot, cold, wet, or windy it might be!

Date:

Astronomy

Jan. 04, 2013 Rise Set
Actual Time 7:16 AM IST 5:47 PM IST
Civil Twilight 6:51 AM IST 6:12 PM IST
Nautical Twilight 6:22 AM IST 6:41 PM IST
Astronomical Twilight 5:53 AM IST 7:09 PM IST
Moon 12:14 AM IST (1/5) 11:23 AM IST (1/4)
Length of Visible Light 11h 21m
Length of Day
10h 30m
Waning Gibbous, 60% of the Moon is Illuminated
Jan 4
Waning Gibbous
Jan 5
Last Quarter
Jan 12
New
Jan 19
First Quarter
Jan 27
Full

Hourly Weather History & Observations

Time (IST) Temp. Windchill Dew Point Humidity Pressure Visibility Wind Dir Wind Speed Gust Speed Precip Events Conditions
12:00 AM 48.2 °F - 39.2 °F 71% 30.04 in 1.2 mi East 4.6 mph - N/A   Smoke
1:00 AM 50.0 °F - 41.0 °F 71% 30.04 in 1.2 mi East 4.6 mph - N/A   Smoke
2:00 AM 46.4 °F 44.3 °F 39.2 °F 76% 30.04 in 1.2 mi East 4.6 mph - N/A   Smoke
2:30 AM 45 °F - 40 °F 75% 30.06 in 1 mi East 4.6 mph - -   Smoke
3:00 AM 44.6 °F 43.1 °F 39.2 °F 81% 30.04 in 1.2 mi ESE 3.5 mph - N/A   Smoke
4:00 AM 42.8 °F 41.1 °F 37.4 °F 81% 30.04 in 1.2 mi ESE 3.5 mph - N/A   Smoke
5:00 AM 42.8 °F - 37.4 °F 81% 30.04 in 1.2 mi Variable 2.3 mph - N/A   Smoke
5:30 AM 41.0 °F 39.0 °F 37.4 °F 87% 30.04 in 1.1 mi East 3.5 mph - N/A   Mist
7:00 AM 41.0 °F - 37.4 °F 87% 30.04 in 0.9 mi Variable 2.3 mph - N/A   Mist
8:30 AM 46 °F - 42 °F 79% 30.08 in 1 mi Calm Calm - - Fog Light Fog
9:00 AM 50.0 °F - 41.0 °F 71% 30.09 in 0.7 mi Variable 2.3 mph - N/A   Scattered Clouds
9:30 AM 51.8 °F - 42.8 °F 71% 30.09 in 0.7 mi SE 3.5 mph - N/A   Mist
10:00 AM 53.6 °F - 42.8 °F 67% 30.09 in 0.9 mi SSE 4.6 mph - N/A   Scattered Clouds
11:00 AM 57.2 °F - 41.0 °F 55% 30.09 in 1.0 mi Variable 3.5 mph - N/A   Scattered Clouds
11:30 AM 61 °F - 39 °F 33% 30.06 in 1 mi SW 4.6 mph - -   Haze
11:30 AM 59.0 °F - 41.0 °F 51% 30.09 in 1.6 mi SSW 4.6 mph - N/A   Haze
1:00 PM 62.6 °F - 39.2 °F 42% 30.04 in 1.9 mi Variable 5.8 mph - N/A   Haze
2:00 PM 64.4 °F - 37.4 °F 37% 30.01 in 1.9 mi WSW 4.6 mph - N/A   Haze
2:30 PM 67 °F - 52 °F 48% 29.97 in 2 mi West 2.3 mph - -   Haze
3:00 PM 64.4 °F - 35.6 °F 34% 29.98 in 2.5 mi Variable 2.3 mph - N/A   Haze
4:00 PM 66.2 °F - 33.8 °F 30% 29.98 in 2.5 mi Variable 2.3 mph - N/A   Haze
5:00 PM 64.4 °F - 33.8 °F 32% 29.98 in 2.5 mi Variable 2.3 mph - N/A   Haze
5:30 PM 64 °F - 37 °F 25% 29.95 in 2 mi WNW 2.3 mph - -   Haze
7:00 PM 55.4 °F - 35.6 °F 47% 29.98 in 1.1 mi Calm Calm - N/A   Smoke
8:00 PM 53.6 °F - 39.2 °F 58% 30.01 in 0.5 mi Variable 2.3 mph - N/A   Smoke
8:30 PM 51 °F - 41 °F 59% 30.00 in 0 mi NNE 2.3 mph - -   Smoke
9:00 PM 51.8 °F - 37.4 °F 58% 30.01 in 0.5 mi Calm Calm - N/A   Smoke
10:00 PM 50.0 °F - 35.6 °F 58% 30.01 in 0.6 mi Variable 2.3 mph - N/A   Smoke
11:00 PM 48.2 °F - 37.4 °F 66% 30.01 in 0.9 mi East 4.6 mph - N/A   Smoke